Weather History for Beira, Mozambique

Change the Weather History Date:

Wednesday, February 20, 2013

  Actual Average Record
Temperature  
Mean Temperature 86 °F -  
Max Temperature 93 °F 84 °F 100 °F (2014)
Min Temperature 78 °F 76 °F 71 °F (2002)
Cooling Degree Days 20    
Growing Degree Days 36 (Base 50)    
Moisture  
Dew Point 78 °F    
Average Humidity 79    
Maximum Humidity 100    
Minimum Humidity 50    
Precipitation  
Precipitation 0.00 in - - ()
Sea Level Pressure  
Sea Level Pressure 29.68 in    
Wind  
Wind Speed - ()    
Max Wind Speed -    
Max Gust Speed -    
Visibility 15.0 miles    
Events      
Averages and records for this station are not official NWS values.
T = Trace of Precipitation, MM = Missing Value Source: Averaged Metar Reports

Daily Weather History Graph

Daily Weather History Graph

Search for Another Location

Airport:

Trip Planner

Search our weather history database for the weather conditions in past years. The results will help you decide how hot, cold, wet, or windy it might be!

Date:

Astronomy

Feb. 20, 2013 Rise Set
Actual Time 5:34 AM CAT 6:13 PM CAT
Civil Twilight 5:12 AM CAT 6:35 PM CAT
Nautical Twilight 4:45 AM CAT 7:02 PM CAT
Astronomical Twilight 4:18 AM CAT 7:28 PM CAT
Moon 2:11 PM CAT (2/20) 12:43 AM CAT (2/20)
Length of Visible Light 13h 23m
Length of Day
12h 38m
Waxing Gibbous, 73% of the Moon is Illuminated
Feb 20
Waxing Gibbous
Feb 25
Full
Mar 4
Last Quarter
Mar 11
New
Mar 19
First Quarter

Hourly Weather History & Observations

Time (CAT) Temp. Heat Index Dew Point Humidity Pressure Visibility Wind Dir Wind Speed Gust Speed Precip Events Conditions
1:00 AM 80.6 °F 88.1 °F 78.8 °F 94% 29.68 in - North - - N/A   Clear
4:00 AM 78.8 °F - 78.8 °F 100% 29.68 in - North - - N/A   Partly Cloudy
5:00 AM 79 °F - 79 °F 98% 29.70 in 9 mi Calm Calm - -  
5:00 AM 78.8 °F - 78.8 °F 100% 29.68 in - North - - N/A   Partly Cloudy
6:00 AM 78.8 °F - 77.0 °F 94% 29.71 in - North - - N/A   Partly Cloudy
7:00 AM 80.6 °F 89.3 °F 80.6 °F 100% 29.71 in - North - - N/A   Scattered Clouds
8:00 AM 82 °F - 80 °F 91% 29.73 in 12 mi Calm Calm - -   Mostly Cloudy
8:00 AM 82.4 °F 94.0 °F 80.6 °F 94% 29.71 in - North - - N/A   Scattered Clouds
9:00 AM 86.0 °F 99.3 °F 78.8 °F 79% 29.71 in - North - - N/A   Mostly Cloudy
10:00 AM 86.0 °F 101.9 °F 80.6 °F 84% 29.71 in - North - - N/A   Partly Cloudy
11:00 AM 88 °F - 81 °F 73% 29.73 in 19 mi Calm Calm - -   Scattered Clouds
11:00 AM 87.8 °F 104.9 °F 80.6 °F 79% 29.71 in - North - - N/A   Partly Cloudy
12:00 PM 89.6 °F 104.7 °F 78.8 °F 70% 29.71 in - North - - N/A   Partly Cloudy
2:00 PM 93 °F - 76 °F 50% 29.61 in 19 mi Calm Calm - -   Scattered Clouds
2:00 PM 93.2 °F 107.2 °F 77.0 °F 59% 29.62 in - North - - N/A   Partly Cloudy
4:00 PM 91.4 °F 105.1 °F 77.0 °F 63% 29.62 in - North - - N/A   Partly Cloudy
5:00 PM 91 °F - 77 °F 56% 29.62 in 19 mi Calm Calm - -   Scattered Clouds
5:00 PM 91.4 °F 105.1 °F 77.0 °F 63% 29.62 in - North - - N/A   Partly Cloudy
6:00 PM 89.6 °F 102.2 °F 77.0 °F 66% 29.62 in - North - - N/A   Partly Cloudy
7:00 PM 86.0 °F 96.9 °F 77.0 °F 74% 29.65 in - North - - N/A   Partly Cloudy
8:00 PM 86 °F - 76 °F 67% 29.67 in 12 mi Calm Calm - -   Scattered Clouds
8:00 PM 86.0 °F 96.9 °F 77.0 °F 74% 29.65 in - North - - N/A   Partly Cloudy